Precipitable_Water
0.89 0.91 0.91 0.89 0.88 0.91 0.94 0.95 0.92 0.90 0.89 0.90 0.91 0.92 0.94 0.91 0.87 0.87 0.85 0.84 0.82 0.84 0.77 0.75 0.74 0.74 0.73 0.72 0.71 0.69 0.66 0.65 0.63 0.65 0.63 0.64 0.62 0.63 0.60 0.57 0.56 0.57 0.54 0.50 0.48 0.47 0.44 0.43 0.43 0.44 0.43 0.39 0.40 0.39 0.39 0.41 0.40 0.39 0.40 0.39 0.38 0.39 0.40 0.38 0.34 0.33 0.38 0.45 0.44 0.43 0.44 0.45 0.42 0.44 0.41 0.42 0.43 0.46 0.49 0.50 0.50 0.49 0.48 0.49 0.50
0.92 0.93 0.94 0.95 0.92 0.90 0.91 0.97 0.97 0.94 0.90 0.92 0.92 0.94 0.95 0.96 0.95 0.95 0.90 0.91 0.88 0.87 0.81 0.79 0.77 0.77 0.74 0.73 0.73 0.72 0.71 0.70 0.67 0.67 0.64 0.65 0.63 0.63 0.59 0.59 0.58 0.58 0.55 0.55 0.55 0.52 0.49 0.47 0.46 0.46 0.45 0.40 0.39 0.39 0.40 0.40 0.39 0.36 0.37 0.39 0.39 0.37 0.38 0.35 0.34 0.32 0.29 0.36 0.37 0.41 0.41 0.44 0.37 0.42 0.40 0.41 0.44 0.45 0.41 0.42 0.43 0.44 0.43 0.44 0.44
0.95 0.95 0.94 0.96 0.96 0.97 0.98 0.98 0.96 0.92 0.89 0.91 0.93 0.97 0.95 0.96 0.96 0.95 0.98 0.93 0.95 0.90 0.87 0.85 0.81 0.78 0.76 0.75 0.74 0.73 0.72 0.73 0.73 0.70 0.67 0.67 0.65 0.63 0.61 0.60 0.60 0.59 0.56 0.56 0.55 0.58 0.54 0.54 0.52 0.54 0.52 0.47 0.46 0.45 0.44 0.42 0.41 0.39 0.37 0.37 0.36 0.37 0.38 0.38 0.34 0.30 0.29 0.30 0.35 0.34 0.35 0.38 0.38 0.39 0.40 0.39 0.39 0.40 0.38 0.37 0.37 0.37 0.38 0.41 0.43
0.91 0.91 0.92 0.95 0.98 0.98 0.97 0.99 1.00 0.96 0.90 0.90 0.88 0.94 1.00 1.00 0.97 1.00 1.01 0.96 0.98 1.00 0.93 0.90 0.87 0.84 0.80 0.78 0.76 0.74 0.73 0.72 0.72 0.72 0.70 0.70 0.68 0.66 0.64 0.63 0.62 0.61 0.60 0.59 0.56 0.56 0.56 0.54 0.54 0.54 0.53 0.50 0.51 0.48 0.46 0.46 0.44 0.42 0.39 0.37 0.37 0.36 0.39 0.41 0.43 0.39 0.36 0.32 0.35 0.35 0.37 0.35 0.35 0.36 0.37 0.37 0.36 0.37 0.38 0.38 0.40 0.38 0.37 0.37 0.39
0.91 0.93 0.94 0.95 0.96 0.98 1.01 1.01 1.02 1.03 1.00 0.98 0.97 1.01 1.06 1.01 1.02 0.93 0.97 1.02 0.98 1.03 0.99 0.93 0.91 0.89 0.86 0.84 0.81 0.79 0.77 0.75 0.74 0.73 0.72 0.72 0.71 0.69 0.68 0.67 0.66 0.63 0.61 0.60 0.59 0.55 0.57 0.55 0.55 0.53 0.52 0.49 0.49 0.51 0.51 0.49 0.44 0.41 0.38 0.37 0.35 0.35 0.36 0.35 0.35 0.36 0.34 0.32 0.31 0.34 0.35 0.35 0.36 0.37 0.37 0.34 0.34 0.35 0.35 0.35 0.35 0.35 0.37 0.39 0.37
0.83 0.86 0.91 0.93 0.95 0.95 0.96 0.98 1.01 1.01 1.02 1.06 1.00 0.94 0.95 0.98 1.06 1.00 0.96 1.03 0.95 0.92 0.99 0.99 0.93 0.91 0.91 0.90 0.88 0.86 0.83 0.80 0.78 0.76 0.75 0.76 0.77 0.76 0.73 0.71 0.68 0.66 0.65 0.63 0.60 0.59 0.56 0.55 0.56 0.55 0.54 0.51 0.50 0.50 0.49 0.48 0.47 0.45 0.42 0.40 0.38 0.35 0.33 0.31 0.31 0.31 0.30 0.29 0.30 0.30 0.33 0.32 0.31 0.33 0.35 0.35 0.34 0.33 0.34 0.35 0.36 0.35 0.33 0.33 0.36
0.61 0.65 0.70 0.77 0.84 0.88 0.91 0.92 0.93 0.94 0.96 0.97 0.99 0.99 0.99 1.05 1.10 1.03 0.98 1.00 0.98 0.92 0.92 0.98 1.01 0.96 0.94 0.93 0.92 0.91 0.88 0.84 0.79 0.77 0.78 0.80 0.82 0.81 0.77 0.74 0.74 0.73 0.69 0.64 0.62 0.60 0.58 0.56 0.55 0.54 0.54 0.54 0.53 0.52 0.52 0.50 0.48 0.47 0.46 0.45 0.43 0.41 0.38 0.36 0.36 0.34 0.32 0.30 0.29 0.30 0.30 0.33 0.34 0.31 0.35 0.37 0.35 0.34 0.32 0.31 0.32 0.37 0.39 0.39 0.41
0.53 0.54 0.58 0.60 0.60 0.64 0.71 0.77 0.84 0.91 0.96 0.98 0.97 0.99 0.99 1.00 1.03 1.05 1.03 1.01 0.97 0.97 0.93 0.92 0.98 1.00 0.98 0.96 0.95 0.94 0.92 0.89 0.84 0.80 0.79 0.79 0.81 0.83 0.82 0.79 0.76 0.72 0.72 0.68 0.65 0.63 0.60 0.58 0.56 0.56 0.56 0.56 0.55 0.52 0.48 0.46 0.46 0.44 0.44 0.42 0.41 0.38 0.36 0.34 0.33 0.33 0.32 0.32 0.31 0.30 0.30 0.30 0.31 0.34 0.36 0.36 0.34 0.34 0.36 0.36 0.35 0.38 0.39 0.40 0.38
0.44 0.46 0.49 0.52 0.52 0.55 0.57 0.61 0.61 0.67 0.71 0.78 0.83 0.87 0.95 1.02 1.08 1.07 1.04 1.05 1.04 1.03 1.03 1.04 1.01 1.02 1.02 1.00 0.97 0.95 0.93 0.91 0.88 0.83 0.80 0.79 0.81 0.82 0.81 0.79 0.75 0.70 0.65 0.65 0.69 0.68 0.64 0.60 0.60 0.58 0.59 0.53 0.46 0.42 0.41 0.40 0.39 0.39 0.40 0.41 0.41 0.41 0.39 0.37 0.35 0.34 0.34 0.33 0.32 0.33 0.32 0.31 0.32 0.32 0.32 0.33 0.33 0.34 0.38 0.39 0.35 0.34 0.32 0.32 0.36
0.42 0.41 0.41 0.44 0.44 0.46 0.48 0.50 0.53 0.54 0.57 0.58 0.63 0.69 0.75 0.78 0.84 0.93 0.98 1.03 1.03 1.03 1.03 1.04 1.03 1.01 1.01 1.00 0.99 0.97 0.95 0.93 0.91 0.86 0.84 0.82 0.84 0.84 0.82 0.80 0.77 0.71 0.63 0.59 0.59 0.60 0.60 0.61 0.59 0.58 0.56 0.52 0.50 0.48 0.46 0.43 0.41 0.41 0.40 0.41 0.40 0.40 0.40 0.38 0.37 0.36 0.34 0.32 0.32 0.32 0.30 0.29 0.28 0.29 0.30 0.32 0.35 0.36 0.34 0.35 0.33 0.35 0.36 0.36 0.37
0.40 0.40 0.39 0.41 0.41 0.41 0.42 0.44 0.46 0.45 0.48 0.50 0.50 0.53 0.58 0.63 0.69 0.71 0.74 0.77 0.84 0.91 0.94 0.96 0.99 1.01 1.00 1.00 0.97 0.97 0.96 0.95 0.94 0.88 0.87 0.87 0.86 0.86 0.83 0.78 0.75 0.70 0.65 0.60 0.57 0.55 0.56 0.58 0.60 0.60 0.56 0.53 0.53 0.53 0.53 0.50 0.48 0.48 0.47 0.45 0.42 0.39 0.37 0.37 0.36 0.37 0.35 0.34 0.35 0.34 0.32 0.30 0.31 0.32 0.31 0.32 0.35 0.36 0.36 0.36 0.35 0.34 0.32 0.30 0.28
0.40 0.41 0.40 0.39 0.39 0.40 0.41 0.42 0.42 0.44 0.47 0.48 0.51 0.52 0.52 0.53 0.58 0.65 0.68 0.70 0.73 0.74 0.74 0.80 0.86 0.91 0.95 0.96 0.95 0.97 0.96 0.96 0.96 0.93 0.92 0.90 0.88 0.86 0.80 0.76 0.74 0.71 0.65 0.60 0.56 0.54 0.53 0.54 0.57 0.58 0.57 0.54 0.53 0.53 0.50 0.50 0.53 0.53 0.52 0.51 0.49 0.47 0.44 0.40 0.36 0.34 0.34 0.34 0.34 0.35 0.35 0.35 0.36 0.38 0.38 0.38 0.37 0.39 0.40 0.40 0.38 0.36 0.34 0.32 0.31
0.40 0.40 0.39 0.39 0.39 0.38 0.38 0.39 0.40 0.41 0.43 0.44 0.45 0.49 0.49 0.52 0.51 0.52 0.58 0.64 0.67 0.68 0.70 0.72 0.72 0.78 0.83 0.85 0.87 0.87 0.87 0.84 0.86 0.87 0.86 0.85 0.84 0.83 0.82 0.76 0.70 0.68 0.64 0.60 0.56 0.53 0.52 0.50 0.50 0.52 0.52 0.49 0.46 0.48 0.52 0.54 0.54 0.51 0.49 0.47 0.46 0.47 0.47 0.46 0.45 0.40 0.37 0.36 0.34 0.33 0.33 0.33 0.34 0.36 0.39 0.40 0.43 0.39 0.39 0.37 0.36 0.35 0.33 0.31 0.32
0.39 0.39 0.38 0.38 0.39 0.40 0.40 0.40 0.39 0.40 0.40 0.41 0.41 0.40 0.42 0.44 0.49 0.54 0.56 0.58 0.58 0.57 0.60 0.63 0.67 0.68 0.73 0.76 0.80 0.80 0.82 0.78 0.78 0.80 0.80 0.78 0.77 0.77 0.77 0.71 0.67 0.64 0.62 0.60 0.57 0.55 0.53 0.51 0.49 0.46 0.45 0.45 0.46 0.47 0.47 0.47 0.46 0.45 0.44 0.44 0.45 0.47 0.48 0.49 0.47 0.45 0.44 0.41 0.38 0.35 0.38 0.40 0.38 0.40 0.43 0.44 0.41 0.39 0.39 0.37 0.39 0.37 0.36 0.35 0.38
0.37 0.37 0.36 0.36 0.37 0.39 0.41 0.41 0.40 0.39 0.37 0.37 0.38 0.37 0.37 0.39 0.41 0.44 0.47 0.52 0.54 0.55 0.56 0.56 0.59 0.63 0.65 0.68 0.72 0.77 0.73 0.72 0.69 0.71 0.74 0.73 0.72 0.72 0.70 0.66 0.63 0.62 0.60 0.58 0.56 0.54 0.52 0.51 0.48 0.45 0.45 0.45 0.48 0.48 0.46 0.43 0.41 0.40 0.38 0.38 0.39 0.40 0.41 0.45 0.46 0.45 0.44 0.45 0.44 0.43 0.44 0.45 0.44 0.44 0.46 0.46 0.45 0.44 0.44 0.42 0.42 0.41 0.41 0.41 0.39
0.35 0.36 0.35 0.35 0.35 0.37 0.40 0.40 0.38 0.37 0.36 0.36 0.36 0.35 0.37 0.40 0.43 0.45 0.43 0.43 0.48 0.51 0.53 0.53 0.52 0.57 0.64 0.67 0.70 0.68 0.68 0.66 0.64 0.66 0.67 0.65 0.64 0.65 0.63 0.61 0.59 0.58 0.57 0.56 0.55 0.55 0.53 0.52 0.49 0.46 0.46 0.47 0.48 0.46 0.45 0.43 0.39 0.36 0.35 0.36 0.37 0.38 0.40 0.43 0.44 0.44 0.44 0.45 0.45 0.45 0.47 0.48 0.49 0.48 0.48 0.47 0.46 0.46 0.45 0.45 0.44 0.42 0.39 0.35 0.32
0.35 0.36 0.35 0.35 0.36 0.38 0.38 0.38 0.38 0.37 0.36 0.35 0.35 0.36 0.38 0.39 0.43 0.48 0.45 0.45 0.44 0.45 0.46 0.51 0.53 0.56 0.62 0.66 0.70 0.62 0.61 0.59 0.59 0.61 0.59 0.57 0.55 0.57 0.58 0.57 0.55 0.54 0.53 0.53 0.54 0.54 0.53 0.51 0.48 0.47 0.47 0.46 0.46 0.43 0.43 0.42 0.38 0.36 0.35 0.36 0.37 0.38 0.38 0.41 0.43 0.43 0.42 0.42 0.42 0.42 0.41 0.40 0.41 0.42 0.43 0.44 0.45 0.46 0.44 0.40 0.37 0.39 0.35 0.31 0.32
0.36 0.36 0.35 0.35 0.36 0.38 0.38 0.37 0.35 0.35 0.35 0.34 0.35 0.36 0.39 0.40 0.41 0.47 0.47 0.47 0.47 0.48 0.51 0.52 0.52 0.55 0.61 0.67 0.66 0.55 0.53 0.54 0.57 0.55 0.53 0.51 0.53 0.54 0.55 0.53 0.51 0.51 0.51 0.52 0.52 0.52 0.52 0.50 0.48 0.47 0.46 0.45 0.46 0.46 0.46 0.43 0.38 0.37 0.36 0.36 0.36 0.37 0.38 0.40 0.41 0.42 0.43 0.42 0.42 0.41 0.41 0.41 0.40 0.40 0.40 0.40 0.40 0.41 0.39 0.34 0.37 0.39 0.35 0.34 0.31
0.36 0.36 0.36 0.36 0.37 0.37 0.38 0.38 0.37 0.37 0.35 0.34 0.35 0.35 0.37 0.40 0.41 0.44 0.47 0.49 0.50 0.52 0.55 0.54 0.53 0.56 0.61 0.63 0.51 0.47 0.51 0.54 0.53 0.49 0.48 0.49 0.52 0.54 0.51 0.49 0.48 0.48 0.48 0.49 0.50 0.49 0.48 0.49 0.48 0.46 0.46 0.48 0.47 0.46 0.45 0.42 0.40 0.39 0.38 0.37 0.35 0.34 0.36 0.39 0.38 0.38 0.39 0.39 0.40 0.42 0.42 0.42 0.42 0.41 0.41 0.42 0.41 0.41 0.40 0.38 0.39 0.37 0.33 0.34 0.34
0.40 0.39 0.38 0.37 0.37 0.39 0.40 0.40 0.40 0.40 0.39 0.39 0.39 0.38 0.39 0.39 0.42 0.45 0.48 0.49 0.49 0.52 0.54 0.55 0.58 0.54 0.52 0.49 0.49 0.51 0.52 0.52 0.49 0.47 0.48 0.49 0.50 0.52 0.52 0.48 0.46 0.46 0.46 0.45 0.44 0.44 0.44 0.44 0.47 0.48 0.49 0.48 0.47 0.46 0.45 0.43 0.40 0.39 0.37 0.35 0.33 0.31 0.36 0.37 0.39 0.39 0.38 0.38 0.38 0.39 0.39 0.41 0.42 0.42 0.42 0.42 0.43 0.43 0.42 0.42 0.41 0.39 0.36 0.34 0.34
0.42 0.41 0.41 0.39 0.39 0.38 0.39 0.40 0.40 0.41 0.40 0.39 0.41 0.41 0.41 0.42 0.44 0.47 0.48 0.49 0.51 0.52 0.53 0.55 0.57 0.49 0.48 0.49 0.52 0.54 0.52 0.50 0.50 0.49 0.48 0.47 0.47 0.48 0.49 0.47 0.46 0.44 0.44 0.44 0.45 0.45 0.45 0.45 0.47 0.49 0.48 0.46 0.44 0.44 0.43 0.41 0.39 0.37 0.36 0.34 0.34 0.35 0.35 0.34 0.35 0.36 0.36 0.36 0.36 0.36 0.36 0.37 0.37 0.38 0.38 0.39 0.40 0.41 0.42 0.43 0.43 0.43 0.40 0.38 0.36
0.43 0.43 0.42 0.41 0.42 0.42 0.43 0.43 0.44 0.44 0.42 0.40 0.40 0.41 0.43 0.46 0.47 0.48 0.49 0.50 0.53 0.53 0.50 0.48 0.48 0.47 0.48 0.49 0.51 0.51 0.51 0.51 0.49 0.47 0.45 0.45 0.46 0.47 0.46 0.46 0.44 0.42 0.40 0.41 0.42 0.44 0.45 0.46 0.46 0.47 0.45 0.43 0.42 0.41 0.39 0.38 0.37 0.36 0.35 0.35 0.35 0.34 0.33 0.34 0.33 0.33 0.34 0.34 0.34 0.34 0.35 0.35 0.35 0.36 0.37 0.38 0.39 0.40 0.42 0.43 0.43 0.43 0.43 0.43 0.41
0.43 0.43 0.42 0.41 0.41 0.41 0.41 0.42 0.43 0.44 0.44 0.44 0.41 0.40 0.44 0.46 0.48 0.50 0.51 0.52 0.51 0.48 0.47 0.47 0.47 0.49 0.50 0.51 0.52 0.52 0.52 0.49 0.46 0.45 0.46 0.46 0.47 0.46 0.44 0.44 0.45 0.44 0.41 0.39 0.40 0.43 0.45 0.44 0.45 0.44 0.44 0.45 0.43 0.40 0.38 0.37 0.37 0.36 0.36 0.36 0.35 0.36 0.36 0.35 0.35 0.34 0.33 0.33 0.33 0.33 0.34 0.35 0.35 0.35 0.36 0.37 0.39 0.40 0.41 0.42 0.43 0.44 0.44 0.45 0.46
0.39 0.38 0.38 0.38 0.38 0.39 0.40 0.40 0.41 0.43 0.44 0.45 0.44 0.42 0.43 0.45 0.47 0.51 0.55 0.53 0.47 0.44 0.44 0.44 0.46 0.47 0.47 0.49 0.51 0.52 0.51 0.49 0.48 0.47 0.47 0.46 0.44 0.44 0.43 0.41 0.39 0.39 0.41 0.40 0.41 0.42 0.42 0.43 0.42 0.42 0.41 0.39 0.39 0.39 0.39 0.38 0.37 0.37 0.37 0.36 0.36 0.36 0.36 0.35 0.35 0.34 0.34 0.33 0.32 0.32 0.33 0.35 0.36 0.36 0.37 0.39 0.40 0.41 0.42 0.43 0.44 0.45 0.45 0.45 0.46
0.36 0.36 0.36 0.36 0.37 0.38 0.40 0.41 0.42 0.42 0.44 0.46 0.45 0.44 0.44 0.50 0.51 0.53 0.53 0.50 0.48 0.45 0.45 0.45 0.45 0.46 0.47 0.48 0.49 0.50 0.50 0.49 0.48 0.47 0.44 0.43 0.42 0.40 0.40 0.40 0.41 0.42 0.39 0.40 0.41 0.41 0.39 0.39 0.41 0.41 0.40 0.40 0.40 0.39 0.38 0.38 0.38 0.37 0.37 0.36 0.37 0.37 0.36 0.35 0.35 0.34 0.33 0.32 0.33 0.33 0.34 0.36 0.37 0.38 0.40 0.42 0.43 0.44 0.44 0.45 0.46 0.47 0.48 0.48 0.48
0.36 0.35 0.35 0.36 0.36 0.37 0.37 0.41 0.42 0.41 0.42 0.44 0.45 0.46 0.49 0.52 0.52 0.52 0.52 0.49 0.48 0.47 0.46 0.46 0.45 0.45 0.45 0.46 0.46 0.47 0.48 0.46 0.43 0.43 0.41 0.40 0.40 0.41 0.42 0.43 0.43 0.43 0.43 0.43 0.44 0.43 0.42 0.42 0.42 0.42 0.41 0.41 0.39 0.39 0.37 0.37 0.37 0.37 0.37 0.37 0.38 0.37 0.37 0.36 0.36 0.35 0.34 0.34 0.34 0.34 0.35 0.37 0.39 0.41 0.42 0.43 0.43 0.42 0.44 0.45 0.45 0.46 0.47 0.46 0.45
0.34 0.34 0.34 0.35 0.36 0.37 0.38 0.37 0.37 0.40 0.42 0.47 0.51 0.52 0.55 0.54 0.52 0.50 0.49 0.48 0.47 0.46 0.45 0.43 0.44 0.43 0.42 0.42 0.44 0.44 0.44 0.42 0.40 0.41 0.42 0.43 0.45 0.46 0.45 0.45 0.45 0.44 0.43 0.43 0.45 0.46 0.44 0.41 0.40 0.40 0.40 0.39 0.38 0.38 0.37 0.37 0.38 0.38 0.38 0.38 0.38 0.37 0.37 0.36 0.35 0.35 0.35 0.35 0.35 0.36 0.38 0.40 0.42 0.42 0.41 0.41 0.42 0.44 0.46 0.46 0.45 0.45 0.46 0.47 0.45
0.39 0.38 0.39 0.40 0.40 0.42 0.41 0.41 0.41 0.41 0.45 0.52 0.50 0.50 0.53 0.53 0.52 0.50 0.48 0.48 0.46 0.44 0.44 0.42 0.41 0.40 0.40 0.40 0.40 0.41 0.39 0.39 0.41 0.42 0.43 0.42 0.40 0.42 0.42 0.42 0.42 0.42 0.43 0.42 0.39 0.38 0.37 0.38 0.39 0.40 0.39 0.39 0.38 0.37 0.36 0.36 0.36 0.35 0.36 0.36 0.37 0.37 0.37 0.37 0.37 0.37 0.37 0.37 0.37 0.38 0.38 0.39 0.38 0.39 0.41 0.41 0.42 0.44 0.47 0.47 0.46 0.46 0.47 0.47 0.44
0.43 0.42 0.42 0.41 0.41 0.41 0.40 0.40 0.43 0.48 0.51 0.53 0.53 0.54 0.54 0.54 0.53 0.53 0.55 0.54 0.52 0.48 0.44 0.43 0.44 0.44 0.43 0.43 0.42 0.39 0.40 0.40 0.39 0.37 0.37 0.38 0.37 0.37 0.40 0.42 0.41 0.39 0.39 0.38 0.36 0.36 0.37 0.37 0.36 0.35 0.35 0.34 0.34 0.34 0.34 0.34 0.34 0.35 0.36 0.36 0.36 0.36 0.36 0.36 0.35 0.36 0.37 0.37 0.37 0.37 0.38 0.39 0.40 0.42 0.43 0.43 0.44 0.46 0.48 0.47 0.48 0.48 0.49 0.50 0.47
0.42 0.42 0.41 0.40 0.40 0.41 0.42 0.43 0.46 0.50 0.52 0.49 0.51 0.55 0.58 0.58 0.55 0.51 0.49 0.50 0.49 0.47 0.45 0.42 0.44 0.45 0.43 0.41 0.41 0.39 0.39 0.40 0.39 0.40 0.42 0.43 0.44 0.43 0.41 0.39 0.38 0.38 0.37 0.36 0.36 0.33 0.33 0.33 0.33 0.32 0.32 0.32 0.32 0.32 0.33 0.34 0.34 0.34 0.35 0.35 0.36 0.36 0.36 0.36 0.36 0.37 0.38 0.38 0.39 0.39 0.40 0.41 0.41 0.43 0.43 0.44 0.46 0.48 0.50 0.50 0.50 0.52 0.50 0.50 0.50
0.40 0.41 0.41 0.40 0.41 0.43 0.46 0.50 0.56 0.59 0.58 0.53 0.53 0.53 0.53 0.53 0.53 0.52 0.50 0.49 0.48 0.45 0.42 0.41 0.42 0.41 0.39 0.39 0.42 0.44 0.44 0.44 0.44 0.44 0.44 0.43 0.41 0.39 0.38 0.38 0.37 0.36 0.36 0.33 0.32 0.31 0.31 0.30 0.31 0.32 0.32 0.33 0.33 0.33 0.33 0.33 0.33 0.33 0.34 0.35 0.36 0.36 0.37 0.37 0.38 0.40 0.40 0.41 0.41 0.42 0.43 0.43 0.43 0.44 0.45 0.46 0.48 0.49 0.51 0.53 0.54 0.54 0.54 0.54 0.53
0.41 0.41 0.44 0.45 0.45 0.46 0.48 0.51 0.55 0.56 0.56 0.55 0.53 0.52 0.50 0.47 0.45 0.47 0.46 0.44 0.44 0.42 0.43 0.45 0.47 0.48 0.47 0.47 0.46 0.46 0.45 0.45 0.45 0.43 0.41 0.40 0.39 0.39 0.38 0.37 0.36 0.34 0.33 0.33 0.29 0.30 0.30 0.30 0.31 0.32 0.33 0.33 0.33 0.33 0.34 0.34 0.34 0.35 0.35 0.35 0.36 0.37 0.38 0.39 0.41 0.42 0.43 0.43 0.43 0.44 0.45 0.46 0.47 0.47 0.48 0.49 0.50 0.52 0.53 0.54 0.55 0.56 0.57 0.58 0.58
0.44 0.46 0.48 0.49 0.50 0.50 0.52 0.53 0.54 0.54 0.54 0.54 0.52 0.51 0.46 0.42 0.41 0.43 0.47 0.48 0.47 0.46 0.46 0.49 0.48 0.46 0.44 0.43 0.42 0.40 0.39 0.39 0.39 0.39 0.39 0.40 0.39 0.37 0.37 0.37 0.35 0.34 0.32 0.29 0.29 0.29 0.30 0.31 0.31 0.32 0.32 0.32 0.34 0.34 0.35 0.36 0.36 0.36 0.37 0.37 0.38 0.40 0.42 0.44 0.45 0.45 0.46 0.46 0.47 0.47 0.49 0.49 0.50 0.50 0.51 0.52 0.53 0.53 0.55 0.56 0.57 0.58 0.58 0.57 0.58
0.49 0.50 0.51 0.52 0.53 0.51 0.52 0.54 0.55 0.54 0.55 0.54 0.53 0.49 0.46 0.46 0.44 0.43 0.42 0.40 0.38 0.40 0.43 0.43 0.42 0.41 0.40 0.39 0.39 0.39 0.39 0.39 0.39 0.39 0.39 0.37 0.35 0.34 0.34 0.34 0.35 0.36 0.33 0.29 0.28 0.27 0.28 0.30 0.31 0.33 0.33 0.34 0.35 0.36 0.36 0.37 0.38 0.38 0.39 0.41 0.43 0.44 0.46 0.48 0.47 0.48 0.48 0.49 0.49 0.50 0.51 0.52 0.53 0.52 0.53 0.55 0.57 0.57 0.57 0.57 0.57 0.56 0.56 0.56 0.56
0.52 0.52 0.54 0.54 0.55 0.55 0.57 0.58 0.57 0.55 0.55 0.53 0.50 0.46 0.45 0.46 0.46 0.44 0.42 0.39 0.37 0.38 0.37 0.37 0.39 0.40 0.39 0.39 0.39 0.39 0.39 0.39 0.39 0.38 0.37 0.35 0.34 0.35 0.36 0.34 0.32 0.31 0.29 0.29 0.26 0.26 0.28 0.31 0.32 0.33 0.35 0.35 0.37 0.38 0.38 0.39 0.40 0.42 0.43 0.44 0.46 0.47 0.48 0.49 0.49 0.50 0.50 0.50 0.51 0.52 0.53 0.53 0.54 0.55 0.55 0.55 0.55 0.55 0.56 0.56 0.57 0.57 0.56 0.56 0.56
0.54 0.54 0.55 0.56 0.58 0.59 0.60 0.60 0.59 0.56 0.53 0.51 0.48 0.43 0.42 0.44 0.45 0.44 0.44 0.44 0.42 0.40 0.39 0.39 0.39 0.39 0.39 0.38 0.38 0.39 0.40 0.40 0.38 0.35 0.33 0.32 0.33 0.33 0.31 0.30 0.29 0.26 0.25 0.24 0.25 0.28 0.31 0.33 0.34 0.35 0.36 0.37 0.39 0.40 0.41 0.43 0.44 0.45 0.46 0.47 0.48 0.49 0.49 0.49 0.50 0.51 0.51 0.52 0.52 0.53 0.54 0.54 0.55 0.55 0.56 0.55 0.55 0.55 0.56 0.56 0.57 0.57 0.58 0.57 0.57
0.57 0.57 0.58 0.59 0.61 0.62 0.62 0.60 0.58 0.55 0.51 0.45 0.42 0.41 0.42 0.44 0.45 0.44 0.43 0.42 0.41 0.41 0.39 0.39 0.40 0.39 0.41 0.42 0.42 0.40 0.37 0.35 0.33 0.32 0.31 0.31 0.32 0.33 0.33 0.32 0.30 0.27 0.24 0.25 0.26 0.30 0.32 0.33 0.35 0.36 0.37 0.39 0.40 0.42 0.44 0.46 0.47 0.48 0.49 0.49 0.49 0.50 0.50 0.50 0.51 0.52 0.52 0.52 0.53 0.54 0.54 0.55 0.56 0.56 0.55 0.54 0.55 0.56 0.57 0.57 0.57 0.57 0.57 0.57 0.57
0.61 0.61 0.62 0.63 0.62 0.61 0.59 0.57 0.54 0.49 0.46 0.45 0.44 0.44 0.44 0.43 0.43 0.44 0.43 0.42 0.42 0.43 0.43 0.44 0.43 0.42 0.40 0.39 0.38 0.33 0.31 0.31 0.30 0.30 0.31 0.31 0.31 0.32 0.32 0.33 0.31 0.28 0.24 0.25 0.29 0.31 0.32 0.34 0.36 0.37 0.39 0.41 0.43 0.45 0.46 0.48 0.49 0.49 0.49 0.49 0.50 0.50 0.51 0.52 0.52 0.53 0.54 0.54 0.54 0.55 0.55 0.56 0.57 0.57 0.57 0.56 0.56 0.56 0.57 0.57 0.57 0.57 0.57 0.57 0.55
0.61 0.60 0.60 0.60 0.59 0.57 0.55 0.53 0.50 0.46 0.45 0.45 0.45 0.44 0.44 0.44 0.45 0.45 0.45 0.45 0.45 0.45 0.44 0.42 0.40 0.37 0.34 0.34 0.32 0.31 0.31 0.29 0.30 0.29 0.30 0.30 0.29 0.32 0.33 0.33 0.31 0.27 0.25 0.26 0.30 0.32 0.33 0.35 0.37 0.39 0.41 0.43 0.45 0.47 0.48 0.49 0.50 0.50 0.50 0.50 0.50 0.51 0.51 0.52 0.53 0.53 0.54 0.54 0.55 0.56 0.56 0.56 0.57 0.57 0.57 0.57 0.57 0.57 0.57 0.57 0.56 0.55 0.54 0.53 0.54
0.58 0.57 0.57 0.55 0.54 0.53 0.51 0.48 0.46 0.46 0.46 0.45 0.45 0.46 0.45 0.45 0.45 0.45 0.45 0.44 0.43 0.43 0.41 0.38 0.35 0.37 0.35 0.33 0.32 0.31 0.28 0.29 0.31 0.29 0.28 0.27 0.29 0.32 0.33 0.32 0.30 0.26 0.25 0.27 0.31 0.33 0.34 0.36 0.38 0.40 0.42 0.45 0.47 0.49 0.50 0.50 0.50 0.51 0.51 0.51 0.51 0.51 0.52 0.53 0.53 0.54 0.54 0.54 0.53 0.54 0.54 0.54 0.54 0.54 0.54 0.54 0.54 0.55 0.55 0.55 0.55 0.56 0.55 0.55 0.55
0.55 0.54 0.53 0.52 0.50 0.48 0.47 0.46 0.46 0.45 0.45 0.45 0.45 0.45 0.45 0.45 0.45 0.45 0.44 0.42 0.40 0.37 0.35 0.35 0.35 0.34 0.32 0.30 0.29 0.28 0.27 0.27 0.30 0.30 0.29 0.28 0.31 0.33 0.33 0.32 0.30 0.27 0.26 0.29 0.32 0.34 0.35 0.37 0.39 0.41 0.44 0.46 0.48 0.50 0.51 0.51 0.51 0.51 0.51 0.52 0.52 0.52 0.53 0.53 0.54 0.53 0.54 0.55 0.55 0.55 0.55 0.55 0.56 0.56 0.55 0.56 0.57 0.57 0.57 0.57 0.57 0.56 0.56 0.56 0.55
0.49 0.48 0.47 0.47 0.47 0.47 0.46 0.45 0.44 0.44 0.44 0.44 0.44 0.44 0.43 0.43 0.43 0.42 0.40 0.38 0.36 0.34 0.34 0.34 0.34 0.32 0.30 0.29 0.27 0.28 0.27 0.30 0.31 0.29 0.29 0.31 0.32 0.34 0.34 0.33 0.30 0.27 0.26 0.31 0.33 0.34 0.36 0.38 0.40 0.42 0.44 0.47 0.49 0.50 0.51 0.51 0.51 0.51 0.51 0.52 0.52 0.52 0.53 0.53 0.54 0.55 0.55 0.54 0.54 0.54 0.55 0.56 0.56 0.56 0.57 0.57 0.57 0.57 0.57 0.57 0.57 0.56 0.56 0.56 0.56
0.46 0.46 0.46 0.46 0.45 0.44 0.43 0.43 0.44 0.44 0.44 0.45 0.45 0.45 0.44 0.43 0.41 0.39 0.38 0.37 0.35 0.33 0.32 0.31 0.31 0.32 0.30 0.29 0.28 0.27 0.30 0.30 0.28 0.28 0.29 0.32 0.34 0.34 0.34 0.32 0.29 0.26 0.28 0.33 0.35 0.36 0.37 0.39 0.41 0.43 0.46 0.48 0.50 0.51 0.51 0.51 0.52 0.52 0.52 0.52 0.52 0.53 0.53 0.54 0.55 0.56 0.55 0.54 0.54 0.55 0.56 0.56 0.56 0.56 0.57 0.57 0.58 0.58 0.57 0.57 0.57 0.58 0.58 0.57 0.57
0.48 0.48 0.48 0.48 0.48 0.47 0.46 0.45 0.44 0.44 0.45 0.45 0.45 0.44 0.44 0.42 0.41 0.39 0.37 0.35 0.34 0.32 0.32 0.32 0.31 0.30 0.29 0.29 0.29 0.29 0.29 0.29 0.28 0.29 0.32 0.33 0.34 0.34 0.33 0.31 0.28 0.26 0.29 0.33 0.35 0.37 0.39 0.40 0.41 0.44 0.47 0.49 0.51 0.52 0.53 0.53 0.53 0.53 0.53 0.53 0.53 0.53 0.54 0.55 0.56 0.56 0.55 0.54 0.55 0.56 0.57 0.57 0.57 0.57 0.58 0.59 0.59 0.58 0.58 0.59 0.58 0.58 0.58 0.58 0.58
0.46 0.46 0.46 0.46 0.46 0.45 0.45 0.44 0.43 0.43 0.43 0.42 0.42 0.42 0.41 0.40 0.39 0.37 0.36 0.34 0.32 0.32 0.31 0.31 0.30 0.28 0.27 0.26 0.27 0.28 0.29 0.28 0.29 0.31 0.33 0.34 0.33 0.33 0.33 0.30 0.26 0.25 0.30 0.33 0.36 0.38 0.39 0.40 0.42 0.44 0.46 0.49 0.51 0.53 0.53 0.54 0.55 0.55 0.55 0.54 0.54 0.54 0.55 0.56 0.57 0.57 0.56 0.55 0.56 0.57 0.57 0.58 0.58 0.59 0.60 0.60 0.60 0.60 0.59 0.59 0.59 0.59 0.58 0.58 0.57
0.45 0.45 0.45 0.45 0.44 0.43 0.42 0.42 0.42 0.42 0.42 0.41 0.40 0.39 0.39 0.39 0.38 0.36 0.34 0.33 0.33 0.32 0.30 0.28 0.26 0.25 0.25 0.24 0.25 0.26 0.27 0.28 0.29 0.32 0.34 0.34 0.33 0.33 0.32 0.29 0.26 0.26 0.31 0.33 0.36 0.37 0.39 0.40 0.42 0.44 0.46 0.48 0.50 0.52 0.53 0.54 0.55 0.56 0.56 0.56 0.56 0.56 0.58 0.58 0.58 0.56 0.55 0.57 0.58 0.58 0.58 0.59 0.60 0.60 0.61 0.61 0.61 0.61 0.60 0.60 0.60 0.59 0.59 0.58 0.58
0.42 0.42 0.41 0.41 0.41 0.40 0.40 0.41 0.41 0.40 0.40 0.39 0.39 0.39 0.39 0.38 0.37 0.35 0.34 0.32 0.31 0.27 0.24 0.23 0.23 0.23 0.23 0.23 0.25 0.26 0.28 0.28 0.29 0.32 0.34 0.33 0.33 0.33 0.32 0.28 0.25 0.27 0.31 0.34 0.36 0.37 0.39 0.41 0.43 0.44 0.46 0.48 0.49 0.51 0.53 0.54 0.55 0.56 0.57 0.57 0.58 0.59 0.59 0.58 0.57 0.55 0.57 0.60 0.60 0.59 0.59 0.60 0.60 0.60 0.60 0.60 0.61 0.61 0.61 0.60 0.60 0.60 0.59 0.59 0.59
0.42 0.41 0.41 0.41 0.40 0.40 0.40 0.40 0.39 0.39 0.39 0.39 0.40 0.39 0.38 0.37 0.36 0.34 0.32 0.28 0.24 0.23 0.23 0.23 0.23 0.23 0.24 0.24 0.25 0.26 0.27 0.29 0.31 0.33 0.34 0.33 0.32 0.32 0.31 0.28 0.25 0.27 0.31 0.33 0.35 0.37 0.39 0.41 0.42 0.44 0.45 0.47 0.48 0.50 0.52 0.53 0.55 0.56 0.57 0.58 0.59 0.60 0.59 0.58 0.57 0.56 0.60 0.60 0.60 0.60 0.60 0.60 0.60 0.61 0.60 0.59 0.59 0.59 0.59 0.59 0.59 0.59 0.59 0.58 0.57
0.42 0.40 0.40 0.40 0.39 0.40 0.40 0.40 0.40 0.40 0.40 0.40 0.39 0.38 0.37 0.36 0.34 0.32 0.27 0.23 0.23 0.24 0.24 0.23 0.23 0.24 0.25 0.25 0.26 0.26 0.28 0.29 0.32 0.33 0.33 0.33 0.32 0.32 0.30 0.27 0.26 0.28 0.31 0.32 0.35 0.37 0.38 0.41 0.42 0.43 0.44 0.46 0.47 0.49 0.51 0.53 0.54 0.56 0.56 0.58 0.59 0.60 0.59 0.58 0.58 0.58 0.59 0.60 0.61 0.61 0.61 0.60 0.60 0.59 0.59 0.58 0.57 0.57 0.56 0.56 0.57 0.57 0.57 0.57 0.56
0.42 0.41 0.40 0.41 0.41 0.41 0.41 0.42 0.41 0.41 0.40 0.40 0.39 0.37 0.36 0.33 0.30 0.25 0.23 0.23 0.23 0.23 0.24 0.24 0.24 0.24 0.24 0.24 0.25 0.26 0.27 0.29 0.32 0.33 0.34 0.33 0.32 0.31 0.29 0.27 0.27 0.28 0.30 0.32 0.34 0.36 0.38 0.40 0.41 0.42 0.43 0.44 0.45 0.47 0.50 0.52 0.54 0.55 0.56 0.58 0.59 0.60 0.59 0.58 0.58 0.59 0.59 0.60 0.60 0.60 0.59 0.59 0.58 0.57 0.57 0.56 0.55 0.56 0.55 0.55 0.55 0.55 0.55 0.55 0.55
0.44 0.43 0.42 0.41 0.41 0.42 0.42 0.41 0.40 0.39 0.39 0.38 0.36 0.34 0.32 0.28 0.24 0.23 0.23 0.23 0.22 0.23 0.23 0.23 0.23 0.23 0.24 0.25 0.26 0.26 0.27 0.30 0.33 0.34 0.34 0.33 0.32 0.30 0.29 0.27 0.27 0.28 0.30 0.32 0.34 0.36 0.38 0.40 0.40 0.41 0.41 0.43 0.44 0.44 0.47 0.50 0.52 0.54 0.56 0.58 0.59 0.60 0.59 0.58 0.58 0.59 0.59 0.60 0.61 0.60 0.60 0.59 0.58 0.58 0.59 0.59 0.59 0.58 0.59 0.59 0.58 0.56 0.54 0.54 0.54
Wind_Speed
21 21 21 21 21 21 21 21 20 20 20 20 19 19 19 19 18 18 17 17 16 16 16 15 15 15 14 14 14 13 13 13 13 13 13 13 13 12 12 12 12 12 12 12 12 12 12 13 13 14 14 14 15 15 15 16 16 16 16 17 17 18 18 19 20 20 21 20 21 21 21 21 21 22 22 22 22 23 23 24 24 24 25 25 25
21 21 21 21 22 22 22 22 21 21 21 20 20 20 19 19 19 19 19 19 18 18 17 17 16 16 16 15 15 15 15 15 15 15 15 15 14 14 14 14 13 13 14 14 14 14 14 14 14 15 15 16 16 16 16 17 17 18 18 18 18 19 19 20 21 22 22 22 22 22 22 22 22 23 23 23 23 24 24 24 24 25 25 25 25
20 20 20 21 22 22 23 23 23 23 22 22 22 22 21 21 21 21 20 20 20 20 19 19 18 18 17 17 16 16 16 16 16 16 16 16 16 16 15 15 15 15 15 15 15 15 15 15 15 16 16 17 17 17 17 18 18 19 19 20 20 21 21 21 22 23 23 23 23 23 23 23 23 24 24 24 24 24 25 25 25 25 25 25 26
21 21 21 21 21 22 23 24 25 24 24 24 23 23 23 22 22 23 22 21 21 21 21 20 20 19 19 19 18 18 18 17 17 17 17 17 17 17 17 17 17 17 17 17 16 17 17 17 17 17 18 18 18 18 18 19 20 20 21 21 22 22 22 22 23 23 24 24 24 24 24 25 25 25 25 25 25 25 25 25 25 26 26 26 26
22 23 23 23 23 23 23 24 25 25 25 26 26 26 26 25 24 24 24 23 22 22 22 22 22 21 21 20 20 20 20 19 19 19 18 18 18 18 18 18 18 18 18 18 18 18 18 19 19 19 19 19 19 19 20 20 21 22 22 22 23 23 23 24 25 25 25 26 26 26 26 26 26 26 26 26 26 26 26 26 26 26 27 27 28
21 22 23 23 24 24 24 24 24 25 26 26 27 27 28 27 26 26 26 25 25 25 24 24 23 23 23 22 22 21 21 20 20 20 20 20 19 20 20 20 20 20 20 20 20 20 20 20 20 21 21 21 21 21 21 22 22 23 23 24 24 24 25 26 26 27 27 28 28 28 28 28 28 28 28 28 28 28 28 28 28 28 28 28 28
20 21 22 22 22 23 24 24 25 26 26 27 28 27 27 28 28 28 28 28 27 26 26 26 25 25 25 25 24 24 23 23 22 21 21 21 21 21 21 21 21 21 21 22 22 22 22 22 22 22 23 23 23 23 23 23 24 24 25 25 26 26 26 27 27 28 28 29 29 29 29 29 29 29 29 29 30 30 30 30 29 28 28 28 28
20 21 22 22 22 23 23 24 25 25 26 26 27 27 27 27 27 27 27 27 27 27 27 28 28 27 27 27 27 27 27 26 25 23 23 22 22 22 23 23 23 22 22 22 23 23 23 24 24 24 24 24 24 24 25 25 25 26 26 26 27 28 28 28 28 29 29 30 30 30 30 30 30 30 30 30 31 31 30 30 30 30 29 30 30
20 21 22 23 23 24 24 24 25 25 24 24 25 25 26 26 26 26 26 26 27 28 29 29 29 29 29 29 29 29 29 29 28 26 25 24 24 25 25 24 24 23 23 23 23 24 24 25 25 25 25 25 26 26 27 27 27 27 28 28 28 29 29 30 30 30 30 31 31 31 31 31 31 31 31 31 32 32 32 32 32 32 32 32 32
22 22 23 23 23 24 25 25 25 25 26 26 25 26 26 27 27 28 28 28 29 29 30 31 31 31 31 31 31 31 31 31 31 29 28 28 28 27 27 26 26 26 25 24 24 25 25 26 27 27 27 28 28 28 28 29 29 29 29 30 30 30 31 31 32 32 32 32 32 32 32 32 32 32 33 33 33 33 33 34 34 33 33 33 33
24 24 24 25 25 25 25 26 26 27 27 27 28 28 28 28 29 29 29 30 30 30 31 31 32 32 33 33 33 33 33 32 32 32 31 31 30 30 29 28 28 28 27 27 26 27 27 27 28 28 29 30 30 30 31 31 31 31 31 32 32 32 32 33 33 33 34 34 34 34 34 34 34 34 34 34 34 35 35 35 35 34 34 34 33
26 26 26 27 27 27 27 27 28 28 28 29 29 30 30 31 31 32 32 32 32 32 32 33 33 33 34 34 34 34 34 33 33 33 33 33 32 31 30 30 30 29 29 29 29 29 29 29 29 30 30 30 31 32 32 33 33 33 34 34 35 35 35 35 35 35 35 36 36 36 36 36 36 35 35 35 35 35 36 36 36 36 36 36 36
27 27 28 28 28 29 29 29 29 30 30 30 31 31 32 33 33 34 34 34 35 35 35 35 35 35 35 36 36 36 35 34 34 34 34 33 32 32 31 31 31 31 31 30 30 31 31 31 32 32 32 32 33 33 33 33 34 35 36 36 37 38 38 38 37 37 37 37 38 38 38 38 38 37 37 37 37 37 37 37 37 38 38 38 38
28 29 29 29 30 30 30 31 31 31 31 32 32 33 34 34 34 35 35 36 36 37 37 37 37 37 37 37 38 37 37 36 34 34 34 34 34 33 33 32 32 32 32 32 33 33 33 33 33 34 34 34 34 34 34 34 35 36 37 38 38 39 39 39 39 39 39 39 40 40 39 39 40 39 39 39 39 39 39 39 39 39 40 40 40
30 30 30 31 31 31 32 32 32 33 33 33 33 34 34 35 35 35 36 36 36 37 37 38 38 38 38 38 38 38 38 37 35 35 35 35 35 35 34 34 33 34 34 34 34 35 35 35 35 35 36 36 36 35 36 37 37 38 39 39 40 40 40 40 40 40 40 40 40 40 40 40 40 40 40 39 40 40 40 40 41 41 42 43 43
31 31 31 32 32 32 32 33 33 33 33 33 33 34 34 34 35 35 35 36 36 36 37 37 37 38 38 38 37 38 37 37 36 36 36 36 35 35 35 35 34 35 35 35 35 35 35 36 36 36 37 37 37 37 38 38 39 40 41 41 41 41 40 41 41 41 41 41 41 41 41 41 42 42 42 42 43 43 43 43 43 43 43 44 43
32 32 32 32 32 32 33 33 33 33 33 33 33 34 34 34 34 34 35 35 35 36 36 36 36 37 37 36 36 36 36 36 37 36 36 36 35 35 35 34 34 35 35 35 35 35 36 36 36 36 37 38 38 38 38 39 40 41 42 42 42 41 41 41 42 42 43 43 43 44 44 44 45 46 46 46 47 46 46 46 45 45 45 44 44
32 32 33 33 33 33 33 33 33 33 33 33 34 34 34 34 34 34 35 35 35 35 35 35 35 36 36 35 35 35 35 36 36 36 35 35 35 34 34 34 34 34 34 35 35 35 36 36 36 37 38 38 38 38 38 39 40 41 42 42 42 42 42 42 42 42 42 42 43 44 44 45 45 45 46 46 47 47 47 48 47 46 46 46 45
33 33 33 33 33 33 33 33 33 33 33 34 34 34 34 34 34 34 35 35 35 35 34 34 34 34 34 34 35 35 35 35 35 34 34 34 34 34 34 34 34 34 34 35 35 35 36 36 37 38 38 37 37 37 38 39 40 41 41 41 42 42 42 42 42 42 42 42 42 43 43 43 43 43 43 44 44 45 46 46 47 47 47 47 47
34 34 34 34 34 34 34 34 34 34 34 34 34 34 34 34 34 34 34 35 35 34 34 34 34 33 34 34 35 35 35 34 34 34 34 34 33 33 33 33 34 34 34 35 35 36 36 36 36 36 36 35 36 37 39 40 41 41 41 42 42 42 42 42 42 42 43 43 44 44 44 44 43 43 43 42 42 43 44 44 45 45 46 47 47
34 34 35 35 35 35 35 35 35 35 35 35 36 36 35 35 35 35 35 35 34 34 33 33 33 33 33 34 35 35 34 34 34 33 33 33 33 33 33 33 34 34 34 35 35 35 35 35 35 34 35 36 37 38 40 41 41 42 42 42 43 43 43 43 44 44 44 44 44 44 44 44 44 43 43 43 43 43 43 44 44 44 44 45 46
35 35 35 35 35 35 35 35 35 35 36 36 37 37 36 36 36 36 36 35 34 33 33 32 32 33 33 33 33 33 33 32 33 32 32 32 32 32 33 33 33 34 35 35 35 35 35 35 35 35 36 37 38 40 41 42 42 42 42 42 43 43 43 43 43 44 43 43 44 43 43 43 43 43 43 43 43 44 44 44 45 45 45 45 45
36 36 36 36 36 35 35 36 35 35 36 36 36 37 36 36 36 36 36 35 34 34 33 33 33 33 32 31 31 31 31 31 31 31 31 31 32 32 33 33 33 33 34 34 34 34 34 35 35 36 37 38 39 40 41 41 41 41 41 41 41 41 42 42 42 42 42 42 43 43 43 43 43 43 43 43 44 44 44 45 46 46 46 47 47
37 37 36 36 36 36 36 36 36 36 36 36 36 36 36 36 36 35 35 35 35 34 34 34 33 32 31 31 30 30 30 30 30 30 31 31 31 32 32 33 33 33 33 33 33 34 35 35 36 37 38 39 39 40 40 40 39 39 39 40 40 40 41 41 41 41 41 42 42 43 43 43 43 43 43 43 44 44 45 45 46 46 47 47 48
38 37 37 37 37 37 37 37 36 36 36 35 35 35 35 34 34 33 33 34 34 33 33 32 32 31 31 30 30 29 29 29 30 30 30 30 31 31 32 32 32 32 32 32 33 34 35 35 36 36 37 38 38 38 38 37 38 38 39 40 40 40 40 40 40 41 41 42 42 43 43 43 43 43 43 44 44 45 45 45 45 45 46 46 47
39 38 38 38 37 37 37 36 36 36 35 34 34 33 33 32 32 31 31 32 32 31 30 29 29 29 28 28 28 28 28 28 29 29 29 29 30 30 31 31 31 31 31 32 33 33 34 34 35 36 36 36 36 36 36 36 37 38 39 39 40 40 40 40 41 41 42 42 42 43 43 43 42 43 43 43 44 43 43 43 44 44 44 44 45
39 38 37 37 36 36 36 35 35 34 33 32 32 32 31 31 30 31 31 30 30 29 28 27 27 26 25 25 25 25 26 26 27 27 27 28 28 29 29 29 29 29 30 30 31 32 32 33 34 34 34 34 35 35 36 37 37 38 39 39 40 40 40 41 42 42 42 43 43 43 42 42 42 42 42 42 42 42 41 41 42 42 42 42 43
37 36 36 35 34 34 34 33 33 32 31 30 30 30 29 29 29 29 29 29 28 27 26 25 24 24 23 23 24 24 24 24 24 25 25 26 26 26 26 26 27 27 27 28 29 30 30 31 31 32 32 33 34 35 36 37 38 38 39 39 40 40 41 41 42 42 42 42 42 42 42 42 42 42 42 42 41 41 40 40 41 41 41 41 42
36 36 35 34 34 33 32 32 32 31 30 28 28 28 28 28 28 27 27 27 26 25 24 23 22 22 22 22 22 22 22 22 23 23 23 23 23 23 24 24 24 25 25 26 27 28 28 28 29 30 32 33 35 36 37 37 37 38 38 39 39 40 40 41 42 42 42 43 43 43 43 43 43 42 42 42 41 41 40 41 41 41 41 41 42
36 35 34 34 33 32 31 30 30 29 28 27 26 26 26 25 25 25 25 24 23 22 21 21 20 21 21 21 21 21 21 21 21 21 20 20 20 20 21 22 22 23 24 25 25 25 26 27 29 31 33 34 35 35 35 36 37 37 38 39 39 40 40 41 41 42 42 43 43 43 43 43 42 42 41 41 40 40 40 40 40 40 40 40 40
35 34 33 33 33 31 30 29 27 26 26 25 25 24 24 23 22 21 21 21 20 20 19 19 19 20 20 20 20 19 19 18 18 18 17 18 18 19 19 20 21 21 22 23 24 24 26 28 30 31 32 32 33 34 35 36 37 38 38 39 39 40 40 40 41 41 41 41 41 41 40 40 39 38 38 37 37 37 36 36 36 36 36 35 35
34 34 33 32 31 30 28 27 26 25 24 24 23 22 21 20 19 18 18 18 18 18 18 18 18 18 18 18 17 17 16 16 15 15 16 16 17 18 18 19 20 20 21 22 23 24 26 27 29 29 30 31 32 34 35 35 36 37 38 38 38 39 39 39 38 38 38 37 37 36 36 35 34 34 33 33 32 32 32 31 31 32 32 32 31
34 33 32 31 29 27 26 24 24 23 23 22 21 20 19 18 18 18 17 16 17 17 17 16 16 15 15 15 14 14 14 14 14 15 15 16 17 17 17 17 18 19 20 20 21 23 24 26 27 29 30 31 32 33 34 35 36 36 37 37 37 36 36 35 34 34 33 33 32 32 31 30 30 30 29 29 29 29 29 29 29 29 29 29 29
33 31 30 28 26 25 24 23 22 21 20 20 19 18 17 17 18 17 16 16 16 15 15 14 14 13 13 13 12 12 12 12 13 13 13 14 14 14 14 15 16 16 18 19 20 22 24 26 27 29 30 31 32 33 34 35 35 34 34 34 33 33 32 31 30 29 29 28 28 28 27 27 27 27 28 27 27 28 28 28 28 28 27 27 27
29 27 26 25 23 22 21 20 20 19 18 18 18 17 17 17 17 16 15 15 15 14 13 12 12 11 11 11 11 10 10 10 10 10 10 10 10 10 11 13 14 15 16 18 20 22 24 26 27 29 30 32 32 33 33 32 32 31 31 30 29 29 28 27 26 26 25 25 25 25 25 25 25 26 26 27 27 27 27 26 26 26 26 27 27
23 22 22 21 20 19 18 18 18 18 17 17 17 17 18 18 17 15 14 14 13 13 11 11 10 10 10 9 9 8 8 8 8 7 7 7 7 8 10 12 13 15 16 18 20 23 24 26 28 29 30 31 31 30 30 29 29 28 28 27 26 25 25 24 24 23 23 23 23 23 23 24 24 25 25 26 26 26 25 26 26 26 27 27 27
18 18 18 18 17 17 17 17 18 18 17 17 18 18 18 18 17 15 14 13 13 12 11 10 10 10 9 8 8 8 7 7 6 6 6 6 7 8 10 12 14 16 18 19 21 23 24 26 27 28 29 29 29 28 27 27 26 25 24 24 23 23 23 23 23 22 22 22 22 22 22 22 23 23 24 24 24 25 25 25 26 26 27 27 27
14 15 16 17 17 18 18 19 18 18 18 18 18 18 18 17 16 15 14 12 11 11 10 10 9 9 9 8 8 7 6 5 5 5 5 6 7 8 11 13 15 17 18 20 21 23 24 25 26 27 27 27 27 26 25 25 24 23 22 22 21 22 22 22 21 21 20 20 20 20 20 20 20 21 21 22 23 23 23 24 25 25 26 26 27
14 15 17 18 19 20 20 20 19 19 18 18 19 19 18 17 15 14 12 11 11 10 10 9 9 9 8 8 7 6 5 4 4 4 5 6 7 9 11 14 15 17 19 20 21 22 23 24 25 26 27 27 26 25 24 23 22 21 21 21 21 21 20 19 19 18 18 17 17 18 18 18 18 19 20 20 21 22 22 23 23 24 24 24 24
18 18 19 20 21 21 21 20 19 19 19 19 19 18 17 15 14 12 11 11 10 10 9 9 8 8 7 6 6 5 4 3 3 3 4 6 8 10 12 14 16 17 19 20 21 22 23 24 25 26 27 26 25 24 22 21 21 21 20 20 20 19 18 17 17 16 16 16 16 17 17 18 18 18 19 19 20 20 20 20 20 21 21 21 21
20 20 21 22 22 21 21 20 19 19 19 19 18 16 14 13 12 11 11 11 10 9 8 8 8 7 6 5 4 4 3 2 2 3 5 7 9 10 12 14 16 18 19 20 21 21 22 24 25 26 26 26 24 22 21 21 20 20 19 19 18 17 16 16 15 15 15 16 16 17 17 17 17 17 17 17 17 17 17 17 16 16 17 17 17
20 20 21 21 20 19 19 19 19 19 18 17 15 14 13 12 11 11 10 10 9 8 8 8 8 7 6 4 4 3 3 2 2 4 6 7 9 11 13 15 16 18 19 20 20 21 22 23 25 25 26 25 23 21 20 20 20 19 18 17 17 16 15 14 14 15 15 15 16 15 15 14 14 14 14 14 14 14 14 13 13 13 12 13 13
18 18 18 18 17 17 18 18 17 17 16 14 13 12 11 11 11 10 9 9 8 9 9 8 7 6 5 4 3 3 2 1 3 5 6 8 10 11 13 15 16 18 19 20 20 21 22 23 24 25 25 25 23 21 20 20 20 19 18 17 16 15 14 14 14 14 15 15 14 13 13 13 12 12 12 13 12 12 11 10 10 9 9 9 9
16 16 16 16 16 16 16 16 15 14 13 12 11 11 10 10 10 9 9 9 9 9 8 8 7 6 5 4 3 2 1 2 3 5 6 8 10 11 13 15 17 18 19 20 21 22 22 23 24 25 25 24 22 21 20 20 20 18 17 16 15 14 14 13 14 14 14 13 13 12 12 12 12 12 11 11 9 8 7 7 7 7 7 6 6
13 13 14 14 15 15 14 14 13 12 11 10 10 9 9 9 9 8 8 8 9 9 8 7 6 5 4 3 2 1 2 2 4 5 6 8 10 11 13 15 17 18 19 20 21 22 22 23 24 25 25 24 23 21 20 20 20 18 16 15 15 14 13 13 13 13 12 11 11 11 12 12 11 10 9 8 7 5 4 3 3 3 3 3 2
12 12 12 12 12 12 12 11 11 10 10 9 9 8 8 8 7 8 8 9 9 8 7 6 6 5 4 3 2 2 2 3 4 5 7 8 10 11 13 15 17 18 19 21 22 23 22 23 24 24 24 24 24 22 20 20 20 18 16 15 15 14 14 13 12 11 10 9 10 10 11 11 10 8 7 7 5 3 1 1 1 1 2 2 2
10 10 10 10 10 10 9 9 9 9 8 8 7 7 7 7 7 8 9 9 8 8 7 6 5 4 3 2 2 2 3 4 5 6 7 8 10 11 13 15 17 18 19 21 22 23 23 23 23 24 24 25 25 23 21 20 20 18 15 14 15 15 14 13 12 10 9 8 9 9 10 10 9 8 6 5 4 3 2 2 2 3 3 3 4
9 9 9 9 8 8 8 8 8 8 7 7 6 6 7 8 8 9 9 8 8 7 6 5 4 4 3 3 3 3 4 5 6 6 7 8 10 11 13 15 16 18 19 20 22 23 23 23 23 24 24 25 25 24 22 20 20 18 15 14 15 15 15 13 11 10 8 8 8 9 9 9 8 8 6 4 4 3 3 3 3 4 5 5 5
7 7 7 7 7 7 7 7 7 7 6 6 6 6 7 8 8 8 8 8 7 6 6 5 4 4 4 4 4 4 5 5 6 7 7 8 10 11 13 14 16 17 19 20 21 22 23 23 23 24 24 24 25 25 23 21 20 18 16 14 15 16 15 13 11 10 9 8 8 8 8 8 7 7 6 5 5 5 5 5 6 6 7 7 8
6 6 6 6 6 6 6 6 6 6 6 6 6 7 7 8 8 8 7 7 7 6 6 5 5 5 5 5 5 5 5 6 7 7 8 9 10 11 13 14 15 17 18 19 20 21 22 23 23 23 23 24 25 26 25 22 21 19 17 15 15 15 14 12 11 11 10 9 8 8 8 7 7 7 6 6 6 6 7 7 6 7 7 8 9
4 4 5 5 5 5 5 5 6 6 6 6 7 7 7 8 8 7 7 7 6 6 6 6 5 6 6 6 6 6 6 7 7 8 8 9 10 11 12 13 14 16 17 18 19 20 22 22 23 23 23 23 24 26 26 23 21 20 18 16 15 15 13 12 11 11 11 9 8 8 7 7 7 7 7 6 6 6 6 6 6 6 6 7 8
Wind_Direction
235 237 239 239 241 242 243 244 245 247 248 249 251 252 253 254 255 254 252 251 249 249 252 252 253 254 255 256 257 258 259 261 262 263 263 263 263 262 265 267 266 266 270 271 272 272 273 272 272 273 274 275 273 270 269 269 270 271 269 267 266 265 265 265 265 267 268 268 268 269 269 269 269 269 269 269 269 269 270 270 270 270 270 269 269
237 240 241 242 244 245 246 246 247 248 249 250 251 252 254 255 256 256 255 254 252 251 253 253 252 252 253 254 256 258 259 260 261 263 263 263 264 265 267 268 266 267 271 273 272 273 275 274 273 274 276 276 276 274 271 270 269 269 268 267 267 266 266 266 266 267 268 268 268 268 268 268 268 269 269 269 269 270 271 271 271 271 270 269 269
239 241 242 244 246 248 249 250 249 249 250 251 252 253 255 255 256 257 256 255 254 253 253 253 252 252 252 253 254 256 258 258 259 260 261 261 263 265 267 268 268 269 272 273 272 273 275 275 274 275 277 277 277 275 274 272 272 271 270 270 269 269 268 268 268 268 269 269 269 269 269 269 269 269 269 269 270 270 270 271 271 271 271 270 270
244 244 243 244 246 248 251 252 251 249 249 251 253 255 256 256 256 257 257 257 256 255 255 254 252 252 252 253 254 255 256 257 257 259 259 259 261 263 265 267 269 271 272 272 273 274 275 276 275 275 277 277 277 276 274 272 272 272 272 272 271 271 271 270 269 270 270 270 270 270 270 270 270 271 271 271 270 270 270 270 270 271 271 271 271
248 247 247 248 250 251 251 252 251 250 251 253 254 255 257 257 257 256 256 256 256 257 257 256 253 252 252 253 254 255 255 255 255 257 258 258 260 262 264 266 267 269 270 271 273 274 276 277 277 277 278 278 277 276 275 274 274 274 273 273 272 272 271 271 270 270 270 270 270 270 271 271 271 271 271 271 271 270 270 270 270 270 270 270 271
250 250 250 251 253 253 254 253 251 250 253 255 257 257 257 257 257 256 256 256 257 257 257 256 255 253 253 253 254 254 256 255 255 256 257 258 259 261 263 265 267 268 269 270 272 273 274 276 278 279 279 279 279 278 278 278 277 276 275 274 274 273 273 272 272 271 271 271 271 271 271 271 271 271 271 271 271 271 271 271 271 271 270 271 271
251 252 252 252 252 253 254 255 254 253 256 258 258 258 257 257 258 258 257 256 256 257 256 256 256 254 254 255 255 256 257 257 256 256 257 258 259 261 263 265 267 268 269 269 270 272 274 275 277 278 279 280 280 280 280 280 279 278 278 276 275 274 274 273 272 272 271 271 271 270 270 270 270 270 271 271 271 271 271 271 272 271 271 271 271
254 253 253 253 254 254 255 256 256 257 259 259 258 257 258 259 259 258 256 255 256 257 257 257 257 256 256 257 257 256 256 257 257 257 257 258 259 261 264 265 267 268 269 269 270 271 273 275 276 277 278 279 280 281 281 281 280 279 279 278 276 275 274 274 273 272 272 271 271 271 271 270 270 270 270 270 270 270 270 271 272 272 272 272 272
256 255 254 254 256 257 257 257 258 258 259 259 258 259 258 259 259 258 257 257 257 258 258 258 258 258 258 259 258 256 255 256 257 257 258 258 259 262 264 265 266 267 268 269 271 272 273 274 275 276 277 278 280 281 281 280 280 280 280 279 278 277 276 275 274 273 272 272 272 272 272 271 271 271 270 270 270 270 270 271 271 271 272 272 272
258 257 257 256 257 258 258 259 259 259 259 259 259 260 260 260 261 261 260 260 259 259 259 259 259 259 259 259 259 258 257 256 255 256 257 259 260 262 263 264 266 267 268 269 270 272 274 275 275 275 276 278 279 280 280 280 280 280 280 280 279 278 277 276 275 274 273 273 272 272 272 271 271 271 271 270 270 270 270 270 271 271 271 271 271
260 259 259 259 259 259 259 259 260 260 261 261 261 261 261 262 262 262 262 260 260 259 259 259 260 260 260 259 260 260 259 257 256 256 257 259 261 262 262 263 265 266 268 269 270 272 274 275 276 276 276 277 279 279 279 279 279 279 279 279 279 278 278 277 276 275 274 273 273 272 272 271 271 271 271 271 271 270 270 270 270 271 271 271 271
261 261 261 261 261 261 260 260 261 261 261 262 262 262 262 262 262 262 262 261 260 260 260 260 261 261 261 260 261 262 260 258 257 257 257 258 259 260 261 262 264 266 268 269 270 272 273 275 276 277 277 277 278 279 279 279 278 278 278 278 278 278 277 276 276 275 274 274 273 272 272 272 272 271 271 271 272 271 271 271 271 271 271 271 271
262 262 262 262 262 262 263 262 262 262 262 263 263 263 263 263 262 262 262 262 261 261 260 261 261 261 261 261 261 262 260 259 258 258 257 258 258 259 261 262 264 266 268 269 270 272 273 275 275 276 277 277 278 279 279 279 278 278 278 278 278 277 276 276 275 275 274 274 273 272 272 272 271 271 271 272 272 272 272 272 271 271 271 271 271
262 262 263 263 263 262 262 263 263 263 264 264 264 264 264 264 263 263 262 262 262 262 261 261 262 261 261 261 261 261 259 258 258 258 257 258 259 260 262 263 264 266 267 269 271 273 274 275 275 276 276 277 277 277 278 279 280 280 280 279 279 277 276 275 274 274 274 273 272 272 272 272 271 271 271 271 271 271 271 272 272 271 271 271 271
263 263 263 263 263 263 262 263 263 264 265 265 265 265 265 264 264 264 263 263 262 262 262 262 262 261 261 261 261 260 259 258 257 257 258 258 259 261 262 263 265 267 268 270 272 273 274 275 275 276 277 277 276 277 278 280 281 281 281 281 280 278 277 275 274 274 274 273 272 272 272 271 271 271 272 271 271 271 271 271 271 271 271 271 271
264 263 263 263 263 263 263 263 263 264 265 265 266 266 265 265 264 264 264 263 263 262 262 262 262 261 261 260 260 259 259 257 256 257 257 257 258 260 262 264 266 267 269 270 272 273 274 275 275 276 276 276 276 276 278 280 281 281 281 281 280 279 278 277 275 274 274 273 273 272 272 272 271 271 271 271 271 271 272 272 271 271 271 271 271
264 264 264 263 263 262 262 263 264 265 265 266 266 266 266 266 265 264 264 264 263 262 262 262 262 261 260 259 258 258 258 256 256 256 257 256 258 260 262 264 267 268 270 271 272 273 274 275 276 276 277 277 276 277 278 280 281 282 282 282 281 280 278 277 276 275 274 273 273 273 273 273 272 272 271 271 270 271 271 270 270 270 270 270 270
264 264 264 263 263 262 262 263 264 264 265 266 266 266 266 266 265 265 264 264 264 263 263 262 262 262 260 258 257 258 257 256 255 256 256 256 259 261 263 266 268 269 271 272 272 273 274 274 275 276 278 278 277 277 278 280 282 283 283 282 281 280 279 278 277 276 275 274 274 273 273 273 272 272 272 271 270 270 269 269 269 269 269 269 269
265 265 264 264 264 263 263 263 263 264 265 266 266 266 266 266 265 265 264 264 264 264 263 262 262 261 260 258 257 257 257 256 255 255 256 257 260 263 265 267 268 269 271 272 272 273 275 275 276 277 278 278 277 277 279 281 283 283 283 282 281 281 280 279 277 276 276 275 275 274 274 273 273 273 272 271 271 270 269 269 269 268 268 268 268
266 266 266 265 265 264 264 264 264 264 265 266 266 267 267 266 265 265 264 264 264 264 263 262 261 260 260 258 258 257 256 255 255 255 256 259 261 264 265 267 268 270 271 272 273 274 276 277 277 277 278 278 278 279 280 282 283 283 283 282 282 281 281 280 278 277 276 276 275 274 274 273 273 273 272 272 271 270 269 269 269 268 268 268 268
266 266 266 266 266 265 265 264 264 265 265 266 266 266 266 265 265 264 264 264 264 264 263 261 260 260 260 259 258 257 255 254 254 255 257 260 262 264 266 267 269 271 272 274 275 275 276 277 278 278 279 279 279 280 281 282 283 283 283 282 282 282 282 280 279 278 277 276 275 275 274 274 273 273 272 272 271 270 269 269 268 268 268 268 268
266 266 266 266 266 266 265 265 265 265 266 267 267 266 266 265 264 263 263 262 262 262 261 260 259 260 259 258 257 255 254 254 254 256 258 261 263 265 266 268 270 272 273 274 274 275 276 277 277 278 279 280 280 281 282 282 282 282 282 281 282 282 281 280 279 278 277 276 275 275 274 274 274 273 272 272 271 270 269 269 268 268 268 268 268
266 266 267 266 266 266 266 266 266 266 267 267 267 266 265 264 263 262 261 260 260 260 260 259 259 258 258 257 256 254 253 254 255 257 260 262 263 265 267 269 270 271 272 273 274 275 276 277 278 279 280 281 282 282 283 282 282 282 281 281 282 282 281 281 280 279 277 276 275 275 274 274 274 273 273 272 271 271 270 269 269 268 268 267 267
266 266 266 266 266 266 266 266 267 267 267 267 267 266 264 263 262 261 260 259 259 259 258 258 257 256 255 255 254 253 254 255 256 258 260 262 264 265 266 268 269 271 272 274 275 276 277 278 279 280 282 283 283 283 283 283 283 282 283 283 283 283 283 282 281 280 279 278 277 276 275 274 274 273 273 273 273 272 271 270 269 269 268 268 267
265 266 266 266 266 266 266 266 267 267 267 267 266 265 264 262 260 259 259 258 257 256 256 256 255 253 252 252 253 254 255 255 257 258 260 262 264 265 266 268 269 270 272 274 275 276 278 279 280 282 283 284 284 284 284 283 284 284 284 284 284 284 283 282 281 280 279 279 278 277 276 275 274 273 273 273 273 272 271 270 270 269 268 268 268
265 265 266 266 266 267 267 267 267 267 266 265 264 263 262 260 258 258 258 257 255 254 254 253 251 250 251 251 252 253 253 255 256 258 260 262 264 265 266 268 269 270 273 275 277 278 279 280 281 282 284 284 285 285 285 285 285 285 285 285 284 283 282 282 281 281 280 280 279 278 277 275 274 273 273 273 273 272 271 270 269 269 269 268 268
265 265 265 265 265 266 266 266 266 266 265 263 262 261 260 258 258 257 256 254 252 251 250 249 247 247 249 250 250 251 252 254 256 258 260 263 264 266 267 269 270 273 275 277 278 280 281 281 282 283 284 285 285 286 285 286 286 286 286 285 284 283 283 282 282 282 282 281 280 279 278 276 275 274 274 274 273 272 270 270 269 269 269 268 268
264 264 263 263 264 264 264 264 264 263 262 261 261 260 259 258 258 256 253 250 248 246 245 244 244 245 247 248 248 250 252 253 256 258 261 263 265 266 268 270 272 274 276 278 280 281 282 282 283 284 285 286 286 286 287 287 287 287 286 286 285 284 284 284 283 283 282 281 280 279 278 277 276 275 274 274 272 271 271 271 270 269 269 268 268
262 262 262 262 263 263 263 263 263 261 260 259 259 259 258 257 255 252 250 247 244 241 240 241 243 244 246 246 247 248 250 252 255 258 260 263 265 267 269 272 274 276 278 281 283 283 283 283 284 286 287 288 288 288 288 288 288 288 287 287 286 286 285 284 284 283 282 281 280 279 278 277 276 275 274 273 271 271 271 270 269 269 269 268 268
260 260 260 261 261 261 261 261 261 258 256 255 255 256 257 255 252 248 245 242 239 238 238 240 242 243 244 245 246 247 248 250 254 257 260 263 266 268 271 273 275 277 280 283 284 284 285 286 288 289 290 290 290 290 290 290 289 289 289 288 288 287 286 285 284 283 282 281 280 279 278 277 276 275 273 272 271 270 269 269 268 269 268 268 268
260 259 259 259 259 259 258 258 256 254 253 252 252 252 252 250 248 244 239 234 234 236 237 238 238 239 241 242 243 244 246 249 253 257 260 263 267 270 272 274 277 279 283 286 287 288 289 290 292 292 292 292 292 291 291 291 291 291 290 289 288 288 287 286 285 283 282 281 280 279 278 277 276 274 272 271 270 269 269 268 268 268 268 267 266
258 258 258 257 256 256 254 253 251 250 249 249 249 248 243 238 235 233 231 229 230 231 232 232 232 234 235 236 239 241 244 246 250 256 261 266 270 273 274 276 280 284 288 290 290 291 293 294 294 294 294 294 294 294 294 293 293 292 292 291 290 289 288 287 286 284 283 282 281 279 278 277 275 273 271 270 270 269 268 268 268 267 266 265 264
256 256 255 254 253 251 248 246 245 244 243 243 241 237 231 225 223 224 224 223 224 224 224 225 227 228 230 233 236 240 241 245 251 258 264 270 273 274 276 280 284 288 291 293 292 294 297 298 298 298 298 297 297 297 296 295 295 294 293 292 291 290 289 288 287 286 285 284 282 280 278 276 274 273 272 271 270 270 269 268 268 267 265 264 263
253 252 250 248 246 243 242 241 240 238 235 231 226 221 218 216 215 215 215 215 216 216 217 218 221 224 226 229 233 237 241 247 252 258 265 271 273 274 279 284 288 289 292 294 297 300 303 303 303 302 302 301 300 299 298 297 297 296 295 293 292 291 290 290 289 288 286 285 282 280 278 275 273 272 271 271 270 270 269 268 267 266 264 264 263
246 244 240 238 237 237 235 233 228 222 217 212 209 207 205 202 201 203 204 204 204 203 205 209 213 216 220 223 227 233 238 244 250 257 266 272 275 280 286 291 295 297 298 299 303 306 307 307 306 306 305 304 303 302 301 300 299 298 296 295 294 293 293 292 291 289 288 285 283 281 278 276 274 272 272 271 271 270 269 268 266 265 265 265 264
234 231 228 227 226 224 221 215 207 201 198 197 196 194 192 190 191 193 192 190 189 191 195 199 202 207 212 217 221 227 233 238 244 253 263 273 284 294 298 301 307 310 309 308 309 310 310 310 311 310 309 308 307 306 305 303 302 300 299 298 297 296 295 294 293 292 290 288 286 283 281 278 276 274 274 273 272 271 270 268 266 264 264 264 264
217 215 213 211 209 205 199 193 188 185 185 186 184 182 180 181 182 182 180 180 183 186 190 193 196 202 209 212 216 222 228 233 241 251 265 281 295 302 307 312 316 317 315 314 315 315 315 316 316 315 314 313 311 310 309 307 305 304 302 301 300 299 298 296 295 294 293 291 288 286 283 282 280 278 276 275 274 272 270 268 266 265 264 264 264
195 195 193 191 188 184 180 177 176 175 177 179 179 176 174 174 174 175 177 180 184 187 190 193 197 202 205 207 209 213 216 225 239 251 266 286 301 310 316 320 321 321 320 320 320 320 321 321 321 320 319 318 317 315 313 311 309 308 306 306 305 304 302 300 298 296 294 293 292 290 288 286 284 283 281 278 276 274 272 269 267 267 266 265 264
157 161 162 163 164 164 165 166 167 168 170 172 171 170 170 171 173 176 180 183 186 187 188 191 193 192 189 188 192 199 209 226 244 253 272 300 315 321 325 327 326 325 325 325 325 325 325 325 325 326 325 324 322 320 318 316 313 311 310 310 310 309 307 304 302 300 298 298 297 296 294 292 290 288 286 282 279 276 273 271 270 268 267 266 264
132 137 142 146 149 151 153 156 159 161 162 163 164 165 168 171 175 179 182 182 182 183 183 183 180 175 172 175 184 196 211 238 268 288 308 321 326 328 329 331 331 330 330 330 330 330 329 330 330 331 330 329 327 325 323 320 317 315 314 314 314 312 311 309 307 305 305 304 303 302 300 298 295 293 289 285 282 279 276 273 271 269 267 265 264
124 129 133 137 140 143 147 150 153 155 157 159 160 162 166 171 174 176 176 176 176 177 175 170 164 165 170 179 189 201 214 244 294 316 326 330 332 332 333 336 336 335 335 335 334 333 333 334 334 335 335 334 332 330 328 326 323 321 319 319 318 316 314 313 311 310 310 309 308 307 305 302 299 295 291 288 285 282 277 273 271 269 267 265 263
124 127 132 136 139 142 146 148 150 152 153 155 157 160 165 169 170 168 168 170 172 171 167 162 160 165 174 179 188 202 216 250 310 323 329 334 335 335 338 340 341 340 340 339 338 337 337 338 338 339 339 338 335 333 333 332 330 327 325 324 322 319 317 315 314 314 314 314 314 313 313 310 306 302 300 298 293 286 278 273 271 269 267 265 262
125 128 133 137 139 141 143 144 146 148 149 150 152 156 159 160 159 160 162 164 162 160 159 159 160 165 170 174 187 203 220 284 325 331 335 337 338 339 342 343 343 344 344 343 342 341 341 342 343 343 343 342 340 338 337 337 336 333 329 327 324 322 318 316 316 317 317 317 319 321 322 321 319 315 312 309 302 291 280 273 269 266 264 264 263
125 127 131 134 136 138 139 141 144 146 148 150 151 153 153 153 154 159 164 166 163 162 162 165 168 170 172 179 193 210 246 310 328 334 338 339 340 342 344 345 346 347 347 347 346 346 345 346 347 348 347 347 345 343 341 341 340 338 335 331 328 326 323 320 320 320 318 318 322 327 326 324 324 323 321 318 311 300 286 275 267 262 260 259 257
126 128 130 133 136 139 140 143 146 149 152 155 156 157 158 159 162 166 170 169 168 168 170 172 175 178 182 190 208 243 289 315 327 334 336 337 339 342 345 347 348 349 349 350 350 349 349 350 351 350 350 350 349 346 344 343 343 342 340 338 336 334 330 326 323 322 321 323 328 331 329 327 325 325 327 329 329 321 307 289 268 250 241 233 216
127 130 132 135 138 142 144 148 152 154 156 158 159 162 165 168 171 173 172 170 170 173 174 174 177 184 191 203 232 276 299 312 324 332 335 336 339 343 346 348 349 351 352 352 353 353 352 353 353 352 351 352 352 350 347 346 346 345 344 344 344 342 338 333 329 328 329 332 335 337 338 339 339 335 333 338 344 349 4 55 103 131 134 123 124
126 131 135 138 141 145 148 152 155 157 159 161 164 168 173 176 176 174 172 171 173 177 180 181 186 197 210 227 256 286 300 309 320 329 333 335 339 344 347 348 350 352 354 354 355 355 356 356 355 354 354 355 356 355 353 351 350 348 347 347 349 349 346 343 341 339 339 342 345 345 348 353 358 357 354 356 5 23 61 94 106 112 109 98 102
128 133 138 141 144 148 152 154 156 158 162 166 171 177 180 179 175 174 174 176 179 182 186 193 202 215 231 251 272 290 300 308 318 327 331 334 339 344 347 348 350 352 354 355 356 357 359 358 356 356 357 358 359 360 358 356 354 353 351 350 351 352 351 352 352 350 348 349 352 353 355 1 6 9 12 22 34 49 73 93 100 103 104 103 107
134 137 140 142 145 150 154 159 163 166 171 175 180 183 184 181 177 178 181 185 188 191 198 208 219 231 246 262 277 289 298 305 315 323 328 333 339 343 345 347 349 351 354 356 356 358 360 360 358 357 359 1 2 3 3 1 360 359 357 355 355 356 357 359 1 1 1 2 3 4 7 12 14 16 27 47 62 71 85 97 100 101 104 108 112
137 142 144 145 149 155 162 168 173 177 181 184 186 188 188 186 185 187 190 194 199 206 214 223 235 246 258 269 278 287 295 303 311 317 323 329 336 340 343 346 348 350 353 355 356 357 360 1 360 358 360 2 4 5 5 5 4 3 2 0 360 1 3 6 9 12 14 16 16 16 20 27 30 34 47 64 74 78 85 94 101 105 110 113 116
133 142 151 157 161 166 174 180 184 186 190 193 195 195 195 193 194 197 201 206 213 221 229 237 247 256 266 274 280 287 293 299 305 311 318 324 332 336 340 343 346 349 352 355 356 357 360 2 1 360 360 2 4 6 7 7 7 6 6 5 4 5 8 13 17 19 22 24 25 27 33 41 46 51 58 64 69 72 78 87 96 104 111 118 123